Content
SEND FEEDBACK

Daily
Averages
Monthly
Summary
United States of America

BONAPARTE, IOWA


Home > North America > United States > Iowa
Elevation: 669 feet     Latitude: 40 43N     Longitude: 091 57W

WEATHER
 
SELECT A DAY
Number of Records: 404,743;   Date Range: 4/23/95 - 8/12/14
 
SHARE

PRINT THIS DATA

[ ← Previous Day ]
WEATHER ALMANAC - FEBRUARY 13, 2013
[ Next Day → ]
[ °C ]   °F
Weather ElementAverageHighLow
Temperature36 °F48.2 °F (3:35 pm)26.6 °F (5:35 am)
Dewpoint27 °F32 °F (2:35 pm)21.2 °F (5:35 am)
Humidity70.7 %86 % (3:35 am)46 % (4:15 pm)
Barometer29.79 in29.89 in (12:35 am)29.70 in (11:55 pm)
Wind Speed7.2 mph11.5 mph (11:35 am)
Wind Gust17.3 mph (11:55 am)
Weather ElementAverage
Visibility9.9 mi
Wind DirectionWSW (233.9 °)

Weather ElementTotal
Precipitation---
Heating Degree Days27.6 (Base 65)
Averaged from 71 records on February 13, 2013
WEATHER CONDITIONS BREAKOUT
WIND DIRECTION BREAKOUT
WEATHER BY HOUR - FEBRUARY 13, 2013
[ °C ]   °F
Local TimeTemperatureDewpointHumidityBarometerVisibilityWind DirectionWind SpeedGust SpeedPrecipitationEventsConditions
12:35 AM30.2 °F24.8 °F80 %29.89 in10.0 miSSW (210°)5.8 mphClear
12:55 AM30.2 °F24.8 °F80 %29.88 in10.0 miSSW (210°)4.6 mphClear
1:15 AM30.2 °F24.8 °F80 %29.87 in10.0 miSSW (210°)5.8 mphClear
1:35 AM30.2 °F24.8 °F80 %29.87 in10.0 miSW (220°)6.9 mphClear
1:55 AM30.2 °F24.8 °F80 %29.87 in10.0 miSW (230°)5.8 mphClear
2:15 AM30.2 °F24.8 °F80 %29.86 in10.0 miSW (230°)5.8 mphClear
2:35 AM30.2 °F24.8 °F80 %29.85 in10.0 miSW (230°)5.8 mphClear
2:55 AM30.2 °F24.8 °F80 %29.84 in10.0 miSW (230°)5.8 mphClear
3:15 AM30.2 °F24.8 °F80 %29.84 in10.0 miSW (230°)5.8 mphClear
3:35 AM28.4 °F24.8 °F86 %29.83 in10.0 miWSW (250°)5.8 mphClear
3:55 AM28.4 °F24.8 °F86 %29.83 in10.0 miWSW (240°)6.9 mphClear
4:15 AM28.4 °F23.0 °F80 %29.83 in10.0 miWSW (250°)5.8 mphClear
4:35 AM28.4 °F23.0 °F80 %29.83 in10.0 miWSW (250°)5.8 mphClear
4:55 AM28.4 °F23.0 °F80 %29.82 in10.0 miWSW (240°)5.8 mphClear
5:15 AM28.4 °F23.0 °F80 %29.82 in10.0 miWSW (250°)5.8 mphClear
5:35 AM26.6 °F21.2 °F80 %29.81 in10.0 miWSW (250°)5.8 mphClear
5:55 AM26.6 °F23.0 °F86 %29.82 in10.0 miWest (260°)5.8 mphClear
6:15 AM26.6 °F21.2 °F80 %29.81 in10.0 miWSW (250°)5.8 mphClear
6:35 AM26.6 °F21.2 °F80 %29.81 in10.0 miWSW (250°)6.9 mphClear
6:55 AM26.6 °F21.2 °F80 %29.81 in10.0 miWest (260°)5.8 mphClear
7:15 AM26.6 °F21.2 °F80 %29.82 in7.0 miWSW (250°)5.8 mphClear
7:35 AM26.6 °F21.2 °F80 %29.82 in7.0 miWest (260°)4.6 mphClear
7:55 AM26.6 °F23.0 °F86 %29.82 in7.0 miWest (270°)4.6 mphClear
8:15 AM28.4 °F24.8 °F86 %29.82 in10.0 miWest (270°)6.9 mphClear
8:35 AM30.2 °F24.8 °F80 %29.82 in10.0 miWest (270°)8.1 mphClear
8:55 AM30.2 °F26.6 °F86 %29.82 in10.0 miWest (270°)8.1 mphClear
9:15 AM32.0 °F26.6 °F80 %29.82 in10.0 miWest (270°)8.1 mphClear
9:35 AM33.8 °F26.6 °F75 %29.83 in10.0 miWest (270°)6.9 mphClear
9:55 AM33.8 °F26.6 °F75 %29.82 in10.0 miWest (280°)5.8 mphClear
10:15 AM33.8 °F26.6 °F75 %29.82 in10.0 miWest (280°)6.9 mphClear
10:35 AM35.6 °F26.6 °F70 %29.82 in10.0 miWSW (250°)6.9 mphClear
10:55 AM35.6 °F28.4 °F75 %29.82 in10.0 miWSW (240°)9.2 mphClear
11:15 AM37.4 °F28.4 °F70 %29.82 in10.0 miWest (270°)8.1 mphClear
11:35 AM37.4 °F28.4 °F70 %29.83 in10.0 miWest (280°)11.5 mph16.1 mphClear
11:55 AM39.2 °F30.2 °F70 %29.82 in10.0 miWest (270°)10.4 mph17.3 mphClear
12:15 PM39.2 °F30.2 °F70 %29.81 in10.0 miWest (260°)11.5 mphClear
12:35 PM39.2 °F30.2 °F70 %29.80 in10.0 miWest (260°)10.4 mphClear
12:55 PM41.0 °F30.2 °F65 %29.79 in10.0 miWSW (250°)9.2 mphClear
1:15 PM42.8 °F30.2 °F61 %29.79 in10.0 miWSW (250°)10.4 mph16.1 mphClear
1:35 PM42.8 °F30.2 °F61 %29.78 in10.0 miWest (280°)9.2 mph16.1 mphClear
1:55 PM44.6 °F30.2 °F57 %29.78 in10.0 miWest (280°)8.1 mphClear
2:15 PM44.6 °F30.2 °F57 %29.77 in10.0 miWest (280°)6.9 mphClear
2:35 PM46.4 °F32.0 °F57 %29.77 in10.0 miWSW (240°)8.1 mphClear
2:55 PM46.4 °F30.2 °F53 %29.76 in10.0 miWest (270°)8.1 mphClear
3:15 PM46.4 °F30.2 °F53 %29.76 in10.0 miWSW (250°)8.1 mphClear
3:35 PM48.2 °F30.2 °F50 %29.76 in10.0 miWSW (250°)10.4 mphClear
3:55 PM48.2 °F30.2 °F50 %29.76 in10.0 miWSW (240°)9.2 mphClear
4:15 PM48.2 °F28.4 °F46 %29.76 in10.0 miWSW (240°)8.1 mphClear
4:35 PM48.2 °F30.2 °F50 %29.76 in10.0 miSW (230°)9.2 mphClear
4:55 PM46.4 °F30.2 °F53 %29.76 in10.0 miWSW (240°)5.8 mphClear
5:15 PM46.4 °F30.2 °F53 %29.76 in10.0 miSW (220°)4.6 mphClear
5:35 PM44.6 °F30.2 °F57 %29.76 in10.0 miSouth (190°)5.8 mphClear
5:55 PM42.8 °F30.2 °F61 %29.76 in10.0 miSouth (190°)6.9 mphClear
6:15 PM41.0 °F28.4 °F61 %29.76 in10.0 miSouth (190°)6.9 mphClear
6:35 PM39.2 °F28.4 °F65 %29.75 in10.0 miSouth (190°)5.8 mphClear
6:55 PM39.2 °F28.4 °F65 %29.76 in10.0 miSouth (190°)6.9 mphClear
7:15 PM39.2 °F28.4 °F65 %29.75 in10.0 miSouth (180°)6.9 mphClear
7:35 PM39.2 °F28.4 °F65 %29.75 in10.0 miSouth (180°)6.9 mphClear
7:55 PM37.4 °F28.4 °F70 %29.75 in10.0 miSouth (190°)5.8 mphScattered Clouds
8:15 PM37.4 °F28.4 °F70 %29.75 in10.0 miSouth (190°)6.9 mphMostly Cloudy
8:35 PM37.4 °F28.4 °F70 %29.75 in10.0 miSouth (180°)6.9 mphOvercast
8:55 PM37.4 °F28.4 °F70 %29.74 in10.0 miSouth (190°)6.9 mphOvercast
9:15 PM37.4 °F28.4 °F70 %29.74 in10.0 miSSW (200°)6.9 mphOvercast
9:35 PM37.4 °F28.4 °F70 %29.73 in10.0 miSouth (190°)6.9 mphOvercast
9:55 PM37.4 °F28.4 °F70 %29.73 in10.0 miSouth (190°)6.9 mphOvercast
10:15 PM37.4 °F28.4 °F70 %29.72 in10.0 miSouth (190°)6.9 mphOvercast
10:35 PM37.4 °F28.4 °F70 %29.71 in10.0 miSSW (200°)9.2 mphOvercast
10:55 PM37.4 °F28.4 °F70 %29.71 in10.0 miSSW (200°)8.1 mphOvercast
11:15 PM39.2 °F28.4 °F65 %29.71 in10.0 miSSW (200°)8.1 mphOvercast
11:35 PM39.2 °F30.2 °F70 %29.71 in10.0 miSouth (190°)6.9 mphOvercast
11:55 PM39.2 °F28.4 °F65 %29.70 in10.0 miSSW (200°)9.2 mphOvercast
Hourly data recorded from KFFL, located miles away from Bonaparte, Iowa







STORIES FROM OUR PARTNERS